Details From CYQX - Gander Intl
To BGBW - Narsarsuaq
Flight Number -
Tags Decoded
Created
Modified
Stats Distance 842 nm / 1,559 km
Max Altitude 0 ft / 0 m
Waypoints 3
Social Downloads 1
Likes 0
Share VATSIM

Download

Looking for another format? Having issues loading an existing format? Contact us
Advertisement - Login to hide

Notes

Decoded

Route

CYQX YAY BGBW

ID Type Via Altitude Latitude Longitude Leg Dist Tot Dist Heading (true) Name
O CYQX APT - 0 ft / 0 m 48.94339˚ -54.56803˚ - 0 nm - GANDER INTL
YAY VOR - 0 ft / 0 m 51.39389˚ -56.08389˚ 158 nm 158 nm 339° / 338° ST ANTHONY VOR-DME
O BGBW APT - 0 ft / 0 m 61.15435˚ -45.43692˚ 683 nm 841 nm 27° / 36° -

Altitude Profile

Advertisement - Login to hide

Weather


0- 5 10 15 20 25 30 35+ Temperature / ° C

Clouds and Precipitation
Forecast for 2018-05-22 18:00 UTC. Updated 3 hours ago

Ground ~20,000 ft ~40,000 ft Winds

CYQX

Details ICAO CYQX (YQX)
Name GANDER INTL
Region Canada
Timezone America/St_Johns (UTC-2.5)
Stats Elevation 496 ft / 151 m (AMSL)
Location 48.942962° -54.565864°
Runways 3
Magnetic Variation 18.723° W

METAR

CYQX 222000Z 26010KT 20SM FEW060 BKN075 10/M02 A2998 RMK CU1CU5 SLP158

Decode

TAF

TAF CYQX 221739Z 2218/2318 25008KT P6SM BKN040 TEMPO 2218/2302 P6SM -SHRA FM230200 22012G22KT P6SM -RA SCT015 OVC080 BECMG 2302/2304 21020G30KT FM230600 23020G30KT 6SM -RA SCT008 OVC015 BECMG 2309/2311 25015G25KT BECMG 2312/2314 34010KT FM231400 34010KT 6SM -RA BR OVC006 PROB30 2314/2318 2SM -RA BR OVC003 RMK NXT FCST BY 230000Z

Decode

Departure Runways

ID Width Length Bearing (true) Bearing (mag) Surface Threshold Offset Overrun Length
03 200 ft / 61 m 10,230 ft / 3,118 m 10.93° 29.65° Asphalt 0 ft / 0 m 200 ft / 61 m
09 50 ft / 15 m 1,874 ft / 571 m 62.63° 81.35° Asphalt 0 ft / 0 m 75 ft / 23 m
13 200 ft / 61 m 8,855 ft / 2,699 m 107.30° 126.02° Asphalt 0 ft / 0 m 200 ft / 61 m
21 200 ft / 61 m 10,230 ft / 3,118 m 190.94° 209.66° Asphalt 0 ft / 0 m 199 ft / 61 m
27 50 ft / 15 m 1,874 ft / 571 m 242.64° 261.36° Asphalt 0 ft / 0 m 250 ft / 76 m
31 200 ft / 61 m 8,855 ft / 2,699 m 287.33° 306.05° Asphalt 0 ft / 0 m 201 ft / 61 m

BGBW

Details ICAO BGBW (UAK)
Name Narsarsuaq
Region Greenland
Timezone America/Godthab (UTC-2.0)
Stats Elevation 112 ft / 34 m (AMSL)
Location 61.160516° -45.425976°
Runways 1
Magnetic Variation 22.775° W

METAR

BGBW 221950Z 19015KT 160V220 9999 SCT100 07/M04 Q0988

Decode

TAF

Not found

Destination Runways

ID Width Length Bearing (true) Bearing (mag) Surface Threshold Offset Overrun Length
07 148 ft / 45 m 5,921 ft / 1,805 m 40.57° 63.34° Concrete 0 ft / 0 m 0 ft / 0 m
25 148 ft / 45 m 5,921 ft / 1,805 m 220.58° 243.35° Concrete 0 ft / 0 m 279 ft / 85 m

Popular Alternatives